Weather History for Appleton, MN

Change the Weather History Date:

Monday, August 26, 2013

  Actual Average Record
Temperature  
Mean Temperature 84 °F -  
Max Temperature 96 °F 77 °F 96 °F (2013)
Min Temperature 73 °F 55 °F 46 °F (2010)
Cooling Degree Days 20    
Growing Degree Days 34 (Base 50)    
Moisture  
Dew Point 72 °F    
Average Humidity 67    
Maximum Humidity 89    
Minimum Humidity 41    
Precipitation  
Precipitation 0.00 in - - ()
Sea Level Pressure  
Sea Level Pressure 29.88 in    
Wind  
Wind Speed 5 mph (South)    
Max Wind Speed 16 mph    
Max Gust Speed 23 mph    
Visibility 10 miles    
Events Thunderstorm    
Averages and records for this station are not official NWS values.
T = Trace of Precipitation, MM = Missing Value Source: NWS Daily Summary

Daily Weather History Graph

Daily Weather History Graph

Search for Another Location

Airport:

Trip Planner

Search our weather history database for the weather conditions in past years. The results will help you decide how hot, cold, wet, or windy it might be!

Date:

Astronomy

Aug. 26, 2013 Rise Set
Actual Time 6:38 AM CDT 8:11 PM CDT
Civil Twilight 6:07 AM CDT 8:42 PM CDT
Nautical Twilight 5:30 AM CDT 9:19 PM CDT
Astronomical Twilight 4:49 AM CDT 10:00 PM CDT
Moon 11:03 PM CDT 1:00 PM CDT
Length of Visible Light 14h 34m
Length of Day
13h 32m
Waning Gibbous, 66% of the Moon is Illuminated
Aug 26
Waning Gibbous
Aug 28
Last Quarter
Sep 5
New
Sep 12
First Quarter
Sep 19
Full

Hourly Weather History & Observations

Time (CDT) Temp. Heat Index Dew Point Humidity Pressure Visibility Wind Dir Wind Speed Gust Speed Precip Events Conditions
12:13 AM 82.4 °F 88.2 °F 73.4 °F 74% 29.94 in 10.0 mi South 3.5 mph - N/A   Clear
12:33 AM 80.6 °F 85.4 °F 73.4 °F 79% 29.94 in 10.0 mi South 3.5 mph - N/A   Clear
12:53 AM 80.6 °F 85.4 °F 73.4 °F 79% 29.94 in 10.0 mi Calm Calm - N/A   Clear
1:13 AM 80.6 °F 85.4 °F 73.4 °F 79% 29.94 in 10.0 mi Calm Calm - N/A   Clear
1:34 AM 80.6 °F 85.4 °F 73.4 °F 79% 29.94 in 10.0 mi South 3.5 mph - N/A   Clear
1:54 AM 78.8 °F - 73.4 °F 83% 29.93 in 10.0 mi South 3.5 mph - N/A   Clear
2:13 AM 78.8 °F - 73.4 °F 83% 29.93 in 10.0 mi SSE 3.5 mph - N/A   Clear
2:33 AM 78.8 °F - 73.4 °F 83% 29.93 in 10.0 mi Calm Calm - N/A   Clear
2:53 AM 78.8 °F - 73.4 °F 83% 29.93 in 10.0 mi South 3.5 mph - N/A   Clear
3:13 AM 78.8 °F - 73.4 °F 83% 29.93 in 10.0 mi SSW 3.5 mph - N/A   Clear
3:33 AM 78.8 °F - 73.4 °F 83% 29.92 in 10.0 mi South 5.8 mph - N/A   Clear
3:54 AM 78.8 °F - 71.6 °F 78% 29.93 in 10.0 mi SSW 3.5 mph - N/A   Clear
4:13 AM 78.8 °F - 71.6 °F 78% 29.93 in 10.0 mi SSW 3.5 mph - N/A   Clear
4:33 AM 78.8 °F - 71.6 °F 78% 29.92 in 10.0 mi South 3.5 mph - N/A   Clear
4:53 AM 78.8 °F - 71.6 °F 78% 29.92 in 10.0 mi Calm Calm - N/A   Clear
5:14 AM 77.0 °F - 69.8 °F 78% 29.93 in 10.0 mi Calm Calm - N/A   Clear
5:34 AM 75.2 °F - 71.6 °F 89% 29.92 in 10.0 mi South 3.5 mph - N/A   Clear
5:53 AM 75.2 °F - 71.6 °F 89% 29.92 in 10.0 mi Calm Calm - N/A   Clear
6:14 AM 75.2 °F - 69.8 °F 83% 29.93 in 10.0 mi Calm Calm - N/A   Clear
6:33 AM 73.4 °F - 69.8 °F 88% 29.93 in 7.0 mi ESE 3.5 mph - N/A   Clear
6:53 AM 73.4 °F - 69.8 °F 88% 29.94 in 7.0 mi SE 3.5 mph - N/A   Clear
7:13 AM 73.4 °F - 69.8 °F 88% 29.94 in 5.0 mi SE 3.5 mph - N/A   Clear
7:33 AM 75.2 °F - 71.6 °F 89% 29.94 in 7.0 mi South 3.5 mph - N/A   Clear
7:53 AM 78.8 °F - 71.6 °F 78% 29.94 in 10.0 mi South 3.5 mph - N/A   Clear
8:13 AM 78.8 °F - 71.6 °F 78% 29.93 in 10.0 mi South 4.6 mph - N/A   Clear
8:33 AM 82.4 °F 87.2 °F 71.6 °F 70% 29.93 in 10.0 mi South 5.8 mph - N/A   Clear
8:53 AM 84.2 °F 88.4 °F 69.8 °F 62% 29.93 in 10.0 mi SSW 4.6 mph - N/A   Clear
9:13 AM 84.2 °F 88.4 °F 69.8 °F 62% 29.92 in 10.0 mi South 5.8 mph - N/A   Clear
9:33 AM 84.2 °F 88.4 °F 69.8 °F 62% 29.92 in 10.0 mi SSW 4.6 mph - N/A   Clear
9:54 AM 84.2 °F 88.4 °F 69.8 °F 62% 29.92 in 10.0 mi South 4.6 mph - N/A   Clear
10:14 AM 87.8 °F 92.6 °F 69.8 °F 55% 29.92 in 10.0 mi South 5.8 mph - N/A   Clear
10:33 AM 87.8 °F 92.6 °F 69.8 °F 55% 29.92 in 10.0 mi South 5.8 mph - N/A   Clear
10:54 AM 89.6 °F 94.7 °F 69.8 °F 52% 29.91 in 10.0 mi South 6.9 mph - N/A   Clear
11:13 AM 89.6 °F 94.7 °F 69.8 °F 52% 29.91 in 10.0 mi South 9.2 mph - N/A   Clear
11:33 AM 89.6 °F 94.7 °F 69.8 °F 52% 29.91 in 10.0 mi SSW 5.8 mph - N/A   Clear
11:53 AM 91.4 °F 96.8 °F 69.8 °F 49% 29.90 in 10.0 mi SSE 8.1 mph - N/A   Clear
12:13 PM 91.4 °F 96.8 °F 69.8 °F 49% 29.90 in 10.0 mi South 8.1 mph - N/A   Clear
12:33 PM 89.6 °F 94.7 °F 69.8 °F 52% 29.89 in 10.0 mi SE 9.2 mph - N/A   Clear
12:53 PM 91.4 °F 96.8 °F 69.8 °F 49% 29.89 in 10.0 mi South 9.2 mph - N/A   Clear
1:13 PM 91.4 °F 96.8 °F 69.8 °F 49% 29.89 in 10.0 mi SSE 9.2 mph - N/A   Clear
1:33 PM 93.2 °F 98.8 °F 69.8 °F 46% 29.88 in 10.0 mi SSE 8.1 mph - N/A   Clear
1:54 PM 93.2 °F 98.8 °F 69.8 °F 46% 29.87 in 10.0 mi South 10.4 mph - N/A   Clear
2:13 PM 95.0 °F 101.3 °F 69.8 °F 44% 29.87 in 10.0 mi South 12.7 mph - N/A   Clear
2:33 PM 95.0 °F 101.3 °F 69.8 °F 44% 29.86 in 10.0 mi SSE 9.2 mph - N/A   Clear
2:53 PM 93.2 °F 98.8 °F 69.8 °F 46% 29.86 in 10.0 mi SSE 10.4 mph 16.1 mph N/A   Clear
3:14 PM 95.0 °F 101.3 °F 69.8 °F 44% 29.85 in 10.0 mi South 10.4 mph 16.1 mph N/A   Clear
3:33 PM 95.0 °F 101.3 °F 69.8 °F 44% 29.84 in 10.0 mi SSE 16.1 mph 21.9 mph N/A   Clear
3:53 PM 96.8 °F 103.1 °F 69.8 °F 41% 29.84 in 10.0 mi South 12.7 mph 21.9 mph N/A   Clear
4:13 PM 96.8 °F 105.1 °F 71.6 °F 44% 29.83 in 10.0 mi South 11.5 mph 17.3 mph N/A   Clear
4:34 PM 95.0 °F 103.2 °F 71.6 °F 47% 29.83 in 10.0 mi South 15.0 mph 18.4 mph N/A   Clear
4:53 PM 95.0 °F 103.2 °F 71.6 °F 47% 29.82 in 10.0 mi South 11.5 mph 23.0 mph N/A   Clear
5:13 PM 93.2 °F 100.5 °F 71.6 °F 49% 29.82 in 10.0 mi South 11.5 mph 18.4 mph N/A   Clear
5:34 PM 95.0 °F 104.5 °F 73.4 °F 49% 29.81 in 10.0 mi South 9.2 mph 17.3 mph N/A   Clear
5:53 PM 93.2 °F 100.5 °F 71.6 °F 49% 29.81 in 10.0 mi South 15.0 mph 19.6 mph N/A   Clear
6:14 PM 93.2 °F 102.4 °F 73.4 °F 52% 29.80 in 10.0 mi South 6.9 mph 18.4 mph N/A   Clear
6:33 PM 91.4 °F 100.1 °F 73.4 °F 55% 29.79 in 10.0 mi South 9.2 mph - N/A   Clear
6:53 PM 91.4 °F 100.1 °F 73.4 °F 55% 29.79 in 10.0 mi SSW 10.4 mph 17.3 mph N/A   Clear
7:13 PM 89.6 °F 98.2 °F 73.4 °F 59% 29.79 in 10.0 mi SSW 11.5 mph - N/A Thunderstorm Clear
7:34 PM 89.6 °F 99.8 °F 75.2 °F 62% 29.80 in 10.0 mi SSW 8.1 mph - N/A   Clear
7:54 PM 87.8 °F 97.6 °F 75.2 °F 66% 29.81 in 10.0 mi SW 3.5 mph - N/A   Clear
8:13 PM 86.0 °F 95.1 °F 75.2 °F 70% 29.82 in 10.0 mi Calm Calm - N/A   Clear
8:33 PM 86.0 °F 95.1 °F 75.2 °F 70% 29.82 in 10.0 mi South 3.5 mph - N/A   Clear
8:54 PM 84.2 °F 92.3 °F 75.2 °F 74% 29.83 in 10.0 mi Calm Calm - N/A   Clear
9:13 PM 84.2 °F 92.3 °F 75.2 °F 74% 29.82 in 10.0 mi South 3.5 mph - N/A   Clear
9:34 PM 82.4 °F 89.5 °F 75.2 °F 79% 29.82 in 10.0 mi SSE 3.5 mph - N/A   Clear
9:55 PM 82.4 °F 89.5 °F 75.2 °F 79% 29.82 in 10.0 mi Calm Calm - N/A   Clear
10:13 PM 80.6 °F 86.2 °F 75.2 °F 84% 29.83 in 10.0 mi SE 3.5 mph - N/A   Clear
10:34 PM 80.6 °F 86.2 °F 75.2 °F 84% 29.82 in 10.0 mi SE 4.6 mph - N/A   Clear
10:53 PM 82.4 °F 89.5 °F 75.2 °F 79% 29.82 in 10.0 mi SE 5.8 mph - N/A   Clear
11:13 PM 82.4 °F 89.5 °F 75.2 °F 79% 29.82 in 10.0 mi SE 5.8 mph - N/A   Clear
11:33 PM 80.6 °F 85.4 °F 73.4 °F 79% 29.82 in 10.0 mi SE 3.5 mph - N/A   Clear
11:53 PM 80.6 °F 85.4 °F 73.4 °F 79% 29.81 in 10.0 mi SSE 3.5 mph - N/A   Clear